This demonstration page uses our WeatherBlox Daily Observations layout. Learn more.

Hourly Observations for August 16, 2020

Temp ( °F °C ) Dew Point ( °F °C ) Humidity (%) Winds ( mph kmh ) Pressure ( in mb ) Visibility ( mi km ) Precip ( " mm )
12:51 am 00:51 Clear 89 31.7 52 11.1 28 28 E 13 20 29.82 1010 10 16.0934 0 0
1:51 am 01:51 Clear 87 30.6 52 11.1 30 30 E 10 17 29.81 1009 10 16.0934 0 0
2:51 am 02:51 Clear 83 28.3 51 10.6 33 33 NW 6 9 29.82 1010 10 16.0934 0 0
3:51 am 03:51 Clear 82 27.8 50 10 33 33 WNW 8 13 29.82 1010 10 16.0934 0 0
4:51 am 04:51 Clear 81 27.2 51 10.6 35 35 N 5 7 29.82 1010 10 16.0934 0 0
5:51 am 05:51 Sunny 81 27.2 51 10.6 35 35 ESE 3 6 29.84 1010 10 16.0934 0 0
6:51 am 06:51 Sunny 81 27.2 52 11.1 37 37 SSE 6 9 29.87 1011 10 16.0934 0 0
7:51 am 07:51 Sunny 87 30.6 52 11.1 30 30 Calm 29.86 1011 10 16.0934 0 0
8:51 am 08:51 Sunny 92 33.3 53 11.7 27 27 S 6 9 29.86 1011 10 16.0934 0 0
9:51 am 09:51 Sunny 96 35.6 52 11.1 23 23 SSE 7 11 29.86 1011 10 16.0934 0 0
10:51 am 10:51 Sunny 99 37.2 49 9.4 18 18 S 5 7 29.84 1011 10 16.0934 0 0
11:51 am 11:51 Sunny 101 38.3 49 9.4 17 17 VRB 3 6 29.81 1010 10 16.0934 0 0
12:51 pm 12:51 Sunny 103 39.4 48 8.9 16 16 undefined N/A 29.78 1009 10 16.0934 0 0
1:51 pm 13:51 Sunny 106 41.1 45 7.2 13 13 SSW 9 15 29.75 1007 10 16.0934 0 0
2:51 pm 14:51 Sunny 106 41.1 44 6.7 12 12 S 8 13 29.74 1007 10 16.0934 0 0
3:51 pm 15:51 Sunny 103 39.4 44 6.7 13 13 undefined N/A 29.72 1007 10 16.0934 0 0
4:51 pm 16:51 Sunny 98 36.7 46 7.8 17 17 NE 29 46 29.73 1007 10 16.0934 0 0
5:21 pm 17:21 Sunny 97 36.1 46 7.8 17 17 E 24 39 29.67 1005 10 16.0934 0 0
5:51 pm 17:51 Mostly Sunny 93 33.9 49 9.4 22 22 ESE 20 31 29.79 1009 10 16.0934 0 0
6:51 pm 18:51 Sunny 91 32.8 52 11.1 26 26 ESE 10 17 29.82 1010 10 16.0934 0 0
7:51 pm 19:51 Clear 92 33.3 48 8.9 22 22 ENE 10 17 29.81 1009 10 16.0934 0 0
8:51 pm 20:51 Clear 92 33.3 46 7.8 21 21 NE 12 19 29.8 1009 10 16.0934 0 0
9:51 pm 21:51 Clear 87 30.6 49 9.4 27 27 S 7 11 29.83 1010 10 16.0934 0 0
10:51 pm 22:51 Clear 85 29.4 49 9.4 29 29 NNW 7 11 29.84 1010 10 16.0934 0 0
11:51 pm 23:51 Clear 85 29.4 48 8.9 28 28 E 7 11 29.87 1011 10 16.0934 0 0

Powered by AerisWeather